Theta_e
294 288 286 287 290 291 291 290 292 292 291 288 286 284 285 285 287 288 290 291 288 288 288 290 290 291 292 293 295 296 295 294 294 293 293 294 294 295 296 296 297 298 299 302 298 297 297 296 297 298 298 297 296 296 296 295 294 294 294 293 293 294 294 293 292 292 291 291 290 290 291 291 291 290 290 290 290 290 290 290 290 289 289 289 288 288
293 287 287 291 293 292 291 291 291 290 288 288 287 285 287 285 286 290 291 291 288 289 287 289 290 291 292 293 295 295 293 293 294 295 295 295 294 294 295 296 297 298 300 299 297 294 293 294 295 295 295 295 295 295 294 294 294 293 293 293 293 293 293 293 293 293 292 293 292 292 292 292 291 290 290 289 289 290 290 290 289 289 288 288 288 288
287 286 290 292 294 291 290 289 289 289 289 287 286 286 285 286 288 291 291 293 291 286 288 290 289 290 291 293 294 294 294 296 296 296 297 296 295 294 294 295 297 297 298 298 297 293 293 293 293 293 294 295 297 296 295 295 293 292 292 293 293 293 293 293 293 293 292 292 292 292 291 292 290 289 290 290 289 289 289 289 289 289 288 288 287 288
285 286 292 293 291 290 290 288 287 287 286 284 284 282 284 287 285 286 287 288 287 289 282 281 285 288 289 291 291 293 294 295 296 296 296 296 295 295 296 297 298 297 297 297 298 296 292 292 293 292 292 294 294 293 291 291 292 292 292 292 293 292 293 293 293 293 293 292 290 289 290 290 289 288 289 288 287 287 288 288 288 288 288 288 287 287
290 289 292 293 291 291 290 290 287 285 288 287 287 286 286 287 288 287 286 285 286 286 285 286 286 287 289 289 291 293 295 294 295 295 294 295 295 296 297 297 298 298 298 298 297 294 290 290 292 293 293 291 292 292 292 292 292 293 292 292 292 292 292 293 293 293 291 290 288 288 288 288 287 287 286 286 285 287 288 288 287 288 288 288 287 287
289 290 289 290 290 290 289 287 287 288 286 288 287 289 290 290 288 287 288 286 283 283 285 285 282 284 286 289 290 292 290 291 294 293 294 295 296 296 295 296 298 298 298 298 298 297 293 292 291 290 289 290 292 292 293 293 293 292 292 292 292 292 292 292 292 292 291 290 289 288 287 286 287 286 285 286 287 286 287 288 288 287 288 288 287 287
289 290 292 290 288 288 288 287 287 289 288 287 284 289 291 289 287 285 284 285 280 280 285 285 280 282 282 284 287 288 289 291 292 291 293 294 295 295 295 296 297 297 296 295 295 294 292 291 290 290 290 291 291 292 291 291 291 291 292 291 292 292 291 292 292 291 291 290 289 289 289 289 288 287 287 288 288 288 288 288 287 287 287 287 287 286
289 287 288 289 288 287 285 285 288 289 288 285 284 286 286 286 284 284 283 284 284 282 283 283 282 280 283 286 287 290 291 290 290 292 292 293 294 294 295 295 295 297 295 294 294 294 293 292 292 292 291 290 292 290 288 289 290 289 290 290 291 291 291 291 291 290 291 290 289 289 289 289 289 289 288 288 288 288 288 287 287 287 287 286 287 286
289 286 286 287 285 284 286 290 289 290 288 285 285 285 285 286 284 284 285 282 281 279 282 282 282 281 282 285 291 291 288 288 290 293 294 294 294 295 295 296 295 296 296 293 294 293 292 291 291 292 290 289 287 288 289 289 290 289 289 289 289 290 290 290 291 290 290 291 290 289 289 288 289 289 288 287 288 287 287 287 286 286 286 286 286 286
288 288 287 289 286 286 288 288 289 291 288 287 286 285 283 282 282 284 282 285 278 277 281 280 283 279 282 288 283 285 286 287 289 292 294 295 295 296 297 297 296 296 295 292 293 293 292 292 291 291 288 286 287 286 288 286 287 287 287 288 288 288 288 289 289 290 289 290 289 289 288 288 288 287 285 286 286 286 286 286 286 286 285 285 285 285
288 291 291 289 287 289 286 285 285 289 288 286 286 286 282 281 279 278 278 277 277 278 281 281 283 282 279 283 284 283 284 288 290 290 292 293 294 294 295 295 297 297 297 294 291 291 290 289 288 286 286 285 284 284 286 286 287 287 287 287 287 288 288 288 288 288 288 289 288 288 288 288 287 286 285 285 285 285 285 285 285 285 285 285 285 284
289 288 288 287 289 286 286 286 284 283 285 287 288 280 283 284 277 276 271 277 275 277 280 282 283 284 278 280 281 285 284 285 290 290 292 292 293 294 295 295 296 296 295 292 289 289 287 286 284 285 285 284 284 284 285 285 286 286 287 287 287 287 287 287 288 288 288 288 288 288 288 288 288 287 286 285 285 285 285 285 285 285 284 284 284 284
284 287 287 290 290 292 285 287 283 280 285 284 281 283 280 275 273 271 271 271 271 277 278 280 283 279 281 284 283 287 288 284 287 291 292 292 293 293 294 294 295 294 290 291 289 287 286 288 286 286 285 283 284 285 285 285 286 286 286 287 287 287 286 287 287 287 287 287 288 288 287 287 288 287 286 286 286 285 285 285 285 284 284 284 283 283
284 283 286 288 290 290 290 286 282 282 283 284 284 281 277 273 270 268 266 266 270 276 278 279 281 282 284 281 288 291 293 293 290 292 292 292 293 293 293 293 293 288 288 290 288 288 288 288 287 287 286 285 285 285 285 285 286 286 287 286 287 288 286 286 286 287 287 287 288 287 287 287 287 287 286 286 286 286 286 286 285 285 285 284 284 284
279 285 285 286 284 288 292 291 290 288 283 286 284 286 283 279 268 266 269 276 277 279 275 276 277 275 275 282 285 293 291 289 288 290 292 290 289 289 287 287 289 289 287 287 287 288 288 288 287 287 287 286 285 285 285 285 285 285 286 286 287 287 286 286 286 287 287 287 287 287 287 287 287 287 286 286 286 285 285 285 285 285 285 284 284 284
284 285 286 291 287 290 290 293 290 282 284 283 282 282 280 280 279 281 282 277 277 272 274 273 278 277 284 287 286 285 288 290 288 288 288 290 291 290 289 291 291 292 286 285 286 287 287 286 286 286 286 286 285 284 285 285 285 285 286 286 287 288 287 286 286 286 287 287 287 287 286 286 286 286 286 285 285 285 285 285 285 284 284 284 284 284
284 281 285 288 286 289 290 290 289 290 279 282 284 281 285 285 285 283 282 282 276 273 278 276 278 283 284 288 288 289 289 289 287 288 288 289 291 291 291 291 290 290 284 285 287 288 288 284 285 286 285 285 284 284 285 285 286 286 287 286 286 287 287 286 286 286 287 287 286 286 286 286 285 285 285 285 284 284 284 284 284 284 284 283 283 283
286 288 290 285 287 287 283 286 287 286 287 283 279 283 286 285 283 282 276 277 280 277 278 278 280 281 280 280 282 283 284 285 284 287 291 292 290 288 291 290 291 288 287 286 286 286 285 285 285 285 285 285 285 285 285 285 286 286 286 286 286 286 286 286 286 286 286 286 286 286 286 286 286 286 285 285 284 283 283 283 283 283 282 283 283 283
290 284 289 289 288 286 285 289 288 288 286 283 282 286 286 278 277 280 275 275 276 276 277 280 283 282 283 284 285 286 287 289 290 288 286 288 289 289 290 289 289 284 285 287 288 287 287 286 287 286 285 284 284 284 285 285 285 285 285 286 286 286 287 287 286 286 286 286 287 287 286 286 285 285 285 285 284 282 283 282 283 282 282 282 281 282
288 284 286 287 288 286 285 285 282 284 286 286 287 285 283 281 278 276 281 277 280 278 279 279 283 281 286 282 285 284 286 288 287 285 285 286 288 289 289 290 290 288 287 288 288 288 288 287 287 287 285 284 284 283 283 283 283 284 285 285 285 286 285 285 285 286 285 286 286 286 286 285 285 285 285 284 283 282 282 283 282 282 281 281 281 281
285 288 280 287 285 286 283 284 282 285 282 284 285 281 283 281 282 282 282 280 281 279 279 278 278 282 288 283 285 285 284 283 283 287 287 287 288 287 286 288 289 288 287 288 288 289 289 288 287 286 285 284 283 283 283 283 284 284 284 284 285 285 285 285 286 286 286 286 286 285 285 285 285 284 284 283 283 283 282 282 282 282 281 280 281 281
286 284 283 286 285 285 286 287 286 286 288 286 286 285 286 284 280 279 278 284 280 281 278 279 277 284 291 288 285 286 285 284 288 288 287 287 288 289 292 288 287 288 289 288 289 289 289 287 286 285 284 283 284 283 283 284 283 283 284 285 285 285 285 285 285 285 286 286 286 285 285 285 284 284 283 283 282 282 282 282 281 281 280 280 280 280
289 286 285 282 285 286 289 291 288 289 288 287 288 287 289 287 286 282 278 281 282 281 284 282 280 282 293 296 294 289 289 287 288 287 289 288 288 289 289 287 289 291 290 290 288 289 288 286 284 283 284 284 285 285 285 283 283 284 284 284 284 284 285 285 286 286 286 285 285 285 285 285 283 283 283 282 282 282 282 281 281 280 280 280 280 280
293 286 282 285 287 288 291 292 288 286 286 286 286 287 286 284 286 284 284 284 281 282 282 281 279 282 292 295 295 294 294 293 291 289 291 293 292 292 290 291 292 292 291 287 285 284 285 285 284 283 283 284 284 285 285 285 285 284 284 284 284 284 285 285 285 285 285 285 285 285 284 284 283 282 282 282 282 282 282 281 281 280 280 280 280 279
288 285 284 280 281 283 285 286 288 286 285 283 282 285 287 288 286 286 285 284 282 283 283 280 275 281 290 294 295 295 294 294 294 294 293 292 293 292 288 289 288 288 287 285 284 284 283 284 285 286 285 285 285 285 285 285 285 285 284 284 284 284 285 285 285 284 284 284 284 284 284 283 283 282 282 282 282 282 281 281 280 279 279 279 279 279
291 287 285 279 278 276 276 277 278 282 284 283 284 285 287 286 286 284 281 282 279 282 284 280 280 286 291 293 293 294 294 294 295 295 294 290 290 292 290 289 288 285 285 285 284 283 285 285 285 286 286 286 285 285 285 285 285 285 285 284 284 284 284 284 284 284 284 284 283 283 283 283 283 282 282 282 282 282 281 281 280 279 279 279 278 278
286 287 288 287 285 282 284 286 286 286 282 283 284 286 286 287 288 287 286 283 280 283 282 283 284 285 287 290 291 293 294 293 294 295 295 294 288 285 286 287 287 288 289 287 285 286 284 285 287 288 288 288 287 286 286 286 286 285 285 285 284 284 284 284 283 283 283 283 283 283 283 283 283 283 282 282 282 282 281 280 279 279 279 278 278 277
284 284 286 287 287 287 289 288 290 290 286 287 287 286 288 287 287 285 283 281 287 283 278 286 287 284 286 289 291 292 293 294 295 295 296 295 292 290 289 289 291 289 289 288 286 287 288 288 288 288 288 288 288 288 287 286 286 285 285 285 285 284 283 284 283 283 283 283 283 283 283 283 283 283 282 282 282 281 281 280 279 279 279 278 277 277
284 285 287 287 286 288 289 289 290 289 289 288 288 288 287 288 287 285 285 286 286 282 280 286 287 285 287 290 292 293 294 294 295 296 296 297 295 292 290 289 289 289 288 286 287 288 288 290 291 292 291 291 290 289 288 287 286 284 284 284 284 283 283 283 283 283 283 282 282 283 283 283 283 282 281 281 281 280 280 279 279 278 278 277 277 277
284 284 288 288 286 287 288 288 289 288 288 288 287 288 288 288 287 287 287 288 287 285 287 287 287 287 290 291 293 294 296 296 296 297 297 296 295 295 295 292 287 286 286 287 288 289 289 290 290 290 290 289 289 289 288 287 286 285 284 284 284 283 283 282 282 282 282 282 282 283 283 282 282 281 281 281 280 280 279 278 278 278 277 277 277 276
288 283 290 287 284 284 287 288 288 288 287 285 286 287 288 288 288 288 288 287 288 287 288 287 286 286 291 294 294 296 296 297 296 295 295 296 296 296 295 294 289 287 286 286 287 288 289 288 288 288 288 288 289 289 289 288 288 286 285 284 283 282 282 282 282 282 282 282 283 283 282 281 281 281 280 280 280 279 278 278 277 277 276 276 276 275
286 283 288 286 282 282 287 286 287 286 285 284 285 286 286 286 284 286 286 287 286 285 286 286 284 285 291 294 294 295 295 294 294 294 295 296 296 295 292 289 288 288 288 289 289 289 289 289 289 288 288 289 289 289 289 289 289 288 287 286 283 283 282 281 281 282 282 282 282 282 282 281 281 280 280 279 279 278 278 277 276 276 276 275 274 274
285 283 283 283 280 280 285 285 284 285 284 280 282 285 287 287 288 288 289 290 289 289 285 283 284 290 292 293 293 293 294 293 293 294 293 291 288 286 286 287 287 287 287 288 287 288 288 288 289 289 289 289 290 291 291 291 291 290 289 287 286 282 280 281 281 282 282 282 281 281 281 281 280 279 279 279 278 277 276 276 275 275 274 274 274 273
286 285 283 285 278 280 285 285 285 281 274 277 288 291 290 287 287 286 286 288 290 290 288 290 290 288 285 285 285 285 286 287 289 288 285 285 285 285 284 285 286 286 286 286 286 286 287 288 288 289 289 289 289 290 290 291 290 290 290 287 282 281 281 280 281 281 281 281 281 281 280 280 280 279 279 278 277 276 275 275 275 275 275 274 273 273
284 285 283 285 279 279 283 282 278 272 276 286 287 290 291 291 290 289 289 290 290 288 285 283 282 282 284 284 283 283 283 285 286 284 284 284 285 284 284 283 284 285 284 285 285 286 286 287 287 288 288 288 288 289 289 289 289 288 288 286 283 281 281 280 281 281 281 281 280 280 279 279 279 278 278 277 277 275 275 274 275 274 274 274 273 273
284 283 283 282 282 282 279 278 271 272 285 283 287 288 289 288 287 286 285 285 277 278 281 282 283 282 282 282 283 282 281 282 283 283 283 283 284 284 283 282 283 284 283 284 284 285 285 286 287 287 287 288 288 288 288 288 288 287 288 286 284 282 281 281 280 280 280 279 279 279 279 278 278 278 277 276 275 275 275 274 274 274 274 273 273 273
286 284 282 278 282 275 276 276 275 281 281 283 282 280 279 276 277 277 276 277 275 277 278 281 283 280 279 281 282 282 281 282 282 282 284 283 283 284 284 283 283 283 283 284 284 284 285 286 287 287 287 287 288 288 287 285 285 285 285 285 283 281 280 279 279 279 279 279 279 279 279 278 278 277 276 275 274 274 274 274 274 274 273 272 272 272
287 282 284 279 278 283 276 275 275 275 272 275 275 280 283 281 280 280 278 276 277 278 280 281 281 280 278 280 281 281 280 278 276 278 282 282 283 283 284 284 284 284 283 284 284 284 285 286 287 287 287 287 288 289 287 283 283 283 283 282 279 278 277 276 279 279 279 279 279 279 278 278 277 277 276 275 274 274 275 275 275 274 273 272 271 271
279 284 282 279 277 280 277 273 273 272 274 274 276 278 281 281 281 281 278 276 276 278 280 281 279 279 279 278 279 280 277 273 274 277 281 282 283 284 283 284 284 284 284 284 284 284 285 286 286 287 287 287 287 288 286 283 282 283 282 279 277 276 276 277 277 276 277 278 277 277 277 277 277 277 276 275 275 275 275 274 274 273 272 272 271 270
272 273 277 276 275 276 275 273 271 276 271 275 277 279 280 281 281 281 273 273 276 278 281 280 277 278 280 278 280 278 276 272 275 278 282 283 284 284 284 283 284 284 284 285 285 285 285 285 286 286 286 286 287 287 285 283 283 282 280 277 274 274 275 276 277 277 276 276 275 274 276 276 277 277 276 275 275 275 275 274 273 271 271 271 270 270
268 268 271 269 269 272 274 271 274 274 278 277 277 280 279 280 279 273 269 270 278 279 282 280 279 279 280 279 279 276 278 280 281 282 284 284 283 284 284 285 284 285 284 285 285 286 286 286 285 285 285 286 287 286 285 283 282 283 281 276 276 278 278 277 278 278 277 276 274 274 275 275 276 276 275 274 274 274 274 273 272 271 270 270 269 269
269 271 270 272 270 271 271 269 269 274 278 278 279 279 280 273 263 264 274 281 279 279 282 281 279 280 280 279 279 279 280 282 282 283 282 283 283 283 284 284 283 284 285 285 285 286 286 286 285 285 286 286 286 285 284 282 281 282 282 279 280 282 279 277 276 276 276 277 276 275 275 275 275 275 274 273 273 273 272 272 271 270 270 269 269 268
270 271 268 270 272 272 270 268 268 266 277 279 279 277 279 269 269 277 278 280 282 281 281 280 280 280 280 278 280 280 280 280 281 281 282 282 282 282 282 282 282 282 282 283 283 284 285 284 284 284 285 286 286 286 285 283 282 283 283 281 283 282 278 276 275 275 275 276 276 275 276 275 275 274 272 272 272 272 271 270 269 269 269 269 268 268
272 267 266 269 273 267 268 267 267 274 276 280 278 271 276 276 279 280 280 279 282 282 280 280 280 280 280 279 278 279 279 279 279 280 281 281 281 281 281 281 281 282 282 282 283 283 284 283 284 284 285 285 286 286 286 284 283 284 283 283 285 282 277 277 277 276 276 275 275 275 275 274 274 274 272 272 272 271 270 269 269 268 268 268 268 267
274 268 272 269 275 271 267 272 276 279 279 278 279 277 278 279 280 280 280 280 279 279 280 278 279 280 279 279 278 278 278 278 279 279 279 279 279 279 279 280 280 280 281 281 281 282 283 282 282 283 283 285 285 286 286 285 284 284 284 286 285 283 280 278 277 276 276 276 275 275 274 274 273 272 272 272 272 271 270 269 268 268 268 268 268 267
273 275 275 271 271 276 277 277 277 276 276 277 278 279 278 279 280 281 281 280 280 279 278 277 277 277 277 278 277 277 277 277 278 278 278 278 278 279 279 279 279 279 280 280 280 280 281 281 281 282 282 283 284 284 285 285 284 283 285 286 286 284 281 279 277 276 276 276 275 275 274 273 273 272 272 271 272 271 270 269 268 268 268 268 268 267
272 274 271 270 272 270 265 274 273 273 275 276 276 277 277 278 281 282 281 280 279 278 277 277 276 276 276 276 276 276 276 277 276 276 277 277 277 276 277 276 277 277 277 277 278 279 278 278 278 278 279 279 280 282 284 284 285 285 285 285 285 284 281 279 278 278 277 276 275 274 273 273 272 271 271 271 271 271 270 269 269 268 268 267 267 267
270 275 269 270 271 269 269 274 274 275 275 276 276 276 275 276 276 277 277 277 276 276 275 276 276 275 276 275 275 274 274 275 274 274 274 274 274 274 274 275 275 275 276 276 276 276 276 275 275 275 276 277 278 280 282 283 284 285 285 285 285 283 280 278 278 278 278 276 275 273 273 273 271 270 270 270 270 270 270 269 269 269 268 267 267 267
273 273 267 272 270 272 274 274 275 275 275 275 275 275 275 276 276 275 274 273 274 273 273 274 274 274 274 274 274 273 272 273 273 273 272 272 272 272 273 273 273 273 273 273 273 274 273 273 273 274 275 276 277 278 279 281 284 285 285 285 285 283 279 278 277 277 277 276 274 273 272 272 272 271 271 270 270 270 270 269 269 269 269 270 270 270
272 270 273 271 267 267 268 271 274 268 268 273 274 274 275 275 274 273 272 271 271 271 271 272 272 272 272 272 272 272 270 271 271 271 270 270 270 271 271 271 271 271 270 271 271 271 272 272 272 272 272 273 274 275 277 279 279 279 280 281 282 282 279 278 277 276 276 275 273 273 271 271 271 270 270 269 269 269 269 270 272 271 269 269 272 273
272 273 273 269 268 268 273 275 275 274 274 274 275 274 274 273 272 271 270 270 270 271 271 270 269 269 269 270 271 270 269 269 269 269 269 269 269 270 270 269 268 268 268 268 268 268 268 268 269 269 270 271 273 274 275 275 275 275 276 277 278 280 279 278 277 276 276 274 272 272 271 270 270 270 269 269 268 268 267 267 270 273 273 272 272 273
Wind_Speed
3 7 8 10 15 15 8 11 18 18 11 6 1 4 10 10 10 7 15 9 3 3 10 15 17 18 17 17 20 16 11 12 15 14 15 13 13 14 14 16 18 18 20 20 8 8 10 10 11 12 11 11 9 10 12 14 15 16 17 15 16 13 14 13 12 11 12 12 8 6 11 12 10 10 8 8 8 8 8 8 9 8 8 8 8 7
3 8 10 16 17 11 13 12 11 10 5 8 8 7 14 6 14 16 14 9 4 7 6 10 17 19 18 16 17 13 9 17 17 17 18 18 14 13 16 19 18 20 15 14 10 6 4 5 8 7 8 8 11 12 13 16 18 16 15 17 15 13 14 15 15 14 13 13 15 16 15 12 11 11 11 11 9 9 8 9 9 8 7 8 8 8
6 11 15 20 12 5 1 4 7 10 10 7 8 8 9 10 13 16 11 15 9 3 14 12 17 18 16 17 17 14 16 17 15 16 20 17 13 12 15 18 19 17 17 16 14 7 6 6 6 7 9 11 16 15 17 16 12 13 14 14 14 14 15 14 14 13 14 12 9 10 8 11 8 5 5 5 5 5 7 8 9 8 8 9 8 8
7 7 19 13 6 5 5 4 4 3 4 5 7 5 12 8 2 14 4 7 0 8 4 4 12 13 10 11 15 14 16 17 16 17 17 15 14 16 18 18 17 18 17 18 19 12 7 7 7 7 9 11 8 8 7 10 15 13 13 13 15 15 15 14 15 14 12 10 6 4 4 4 5 5 4 4 5 5 6 8 8 8 9 9 8 8
18 6 8 9 6 9 12 9 4 5 13 7 12 8 11 11 15 13 8 4 5 5 4 11 16 16 12 17 14 15 18 16 16 16 15 16 13 16 15 14 16 20 22 18 17 11 5 6 9 12 11 7 10 11 13 14 15 13 17 16 16 15 15 14 14 14 10 9 8 6 6 5 6 5 5 5 6 8 8 8 9 12 9 9 9 9
14 5 3 5 7 9 9 7 8 8 14 12 8 13 20 17 13 10 12 9 5 7 4 4 10 14 9 17 17 11 7 8 12 13 17 20 17 14 17 21 22 18 18 18 18 14 7 9 7 6 7 10 10 12 14 14 14 13 13 14 13 12 12 12 13 13 12 12 13 12 11 11 9 9 10 14 17 14 14 15 8 7 10 11 9 9
6 5 8 7 8 9 9 8 7 10 15 13 5 17 18 13 9 8 9 2 7 6 3 2 3 21 6 4 6 7 9 13 9 9 15 16 15 12 16 19 19 17 15 10 11 9 7 8 6 7 10 12 12 12 8 8 10 11 12 13 15 14 12 12 13 14 12 12 12 16 17 15 15 15 12 9 7 10 9 7 10 10 8 10 11 9
3 4 8 7 7 7 6 6 10 16 10 10 2 8 7 6 6 5 4 7 9 1 4 3 5 9 24 8 7 13 15 12 12 14 16 16 15 14 16 17 17 18 11 10 11 9 8 8 12 15 14 11 14 7 8 9 9 12 13 13 14 11 12 11 12 14 14 14 13 13 12 12 14 15 14 12 10 8 8 9 10 9 9 9 9 9
7 3 7 7 5 5 9 18 5 12 8 5 1 7 5 5 4 3 3 4 3 5 12 7 3 4 14 6 15 15 11 10 13 17 19 16 15 16 16 17 17 17 15 7 10 9 9 10 11 9 10 9 6 9 11 12 12 11 10 11 10 12 12 11 14 14 14 13 14 14 12 12 11 10 7 7 7 9 10 11 8 9 9 8 8 9
2 2 6 9 9 10 10 2 8 13 10 5 6 5 5 4 4 2 1 0 4 3 17 7 4 4 20 15 5 0 5 9 13 18 19 16 15 16 16 15 13 12 11 7 9 7 7 8 8 6 3 5 7 5 6 6 6 7 8 10 11 11 10 10 13 14 14 13 12 13 14 15 11 8 5 7 9 10 10 12 11 9 9 9 8 8
4 2 4 5 8 6 4 1 2 8 6 4 4 3 4 6 3 4 6 3 4 9 12 12 10 7 12 6 9 9 7 12 12 6 8 9 10 12 14 13 13 13 12 9 7 5 5 3 4 5 7 7 5 6 7 8 9 9 10 12 13 13 10 11 14 14 16 14 13 14 14 15 13 11 9 9 10 9 10 12 12 12 10 9 9 8
4 0 2 5 4 4 3 2 2 2 1 3 1 2 4 5 6 3 4 3 3 13 4 11 14 11 10 5 4 4 3 2 7 10 14 13 14 14 13 12 13 14 11 6 5 5 4 4 5 6 7 8 8 6 8 8 9 10 11 12 14 12 13 12 13 14 15 14 15 13 14 15 14 13 12 15 14 14 14 13 12 10 9 10 9 9
5 12 6 1 5 11 3 2 2 3 2 4 4 2 2 6 6 3 2 1 6 13 2 4 8 2 22 8 3 8 8 4 8 10 12 13 13 12 12 13 14 8 4 6 6 4 5 8 9 9 7 6 10 12 12 12 11 11 11 14 16 16 14 14 14 16 16 15 16 16 15 14 13 14 15 14 13 12 13 12 11 12 13 11 11 12
9 1 3 5 1 6 9 9 1 2 5 7 7 6 6 5 4 5 5 3 6 7 6 5 3 12 8 4 10 13 16 13 10 12 12 11 12 12 11 10 10 6 5 6 5 5 7 9 9 9 10 11 10 10 11 10 11 11 11 13 16 17 14 13 13 16 16 18 17 15 15 14 13 14 14 13 13 13 12 11 13 14 13 14 16 15
7 12 6 7 5 4 12 13 16 9 9 13 3 13 12 10 6 3 5 10 9 10 3 3 5 9 1 6 6 14 5 4 4 8 11 7 7 8 7 8 13 12 6 3 5 7 9 9 9 11 11 10 10 11 11 10 10 10 11 13 16 14 15 17 18 16 18 17 17 16 15 13 12 14 12 12 11 11 12 11 12 12 11 12 12 13
10 12 7 8 1 8 11 12 4 6 3 3 3 3 1 9 6 8 8 6 6 2 4 3 8 3 6 1 4 4 7 9 4 4 5 8 10 8 9 11 11 13 2 3 5 7 7 7 6 6 7 9 9 10 10 11 12 12 15 15 17 19 17 17 16 17 19 18 14 13 14 16 14 11 10 10 10 10 11 12 13 12 12 11 9 8
1 7 1 0 3 8 10 5 6 9 4 4 7 7 12 3 8 6 4 2 2 1 15 3 7 10 7 13 8 11 9 11 4 6 5 7 11 13 11 11 11 10 4 4 7 8 7 5 6 8 7 8 8 9 13 15 15 17 15 15 17 16 12 15 17 18 15 13 13 16 16 13 13 15 15 15 13 11 10 10 11 11 11 9 9 9
9 12 1 4 6 5 2 2 2 2 3 9 3 8 2 2 3 3 5 2 4 11 10 3 15 10 3 15 3 2 3 5 5 8 11 11 7 7 10 10 12 8 6 5 6 6 6 5 6 6 6 9 12 13 13 14 13 11 11 12 14 12 15 16 17 16 15 16 17 15 16 16 16 15 15 12 12 10 9 10 9 9 9 11 9 9
3 11 9 8 6 2 3 0 4 0 1 3 5 2 6 3 4 3 4 6 8 11 7 9 18 15 10 15 2 8 9 9 10 7 3 6 8 9 10 12 11 6 6 7 8 7 8 9 10 10 11 7 6 8 9 8 8 8 9 11 12 17 19 16 11 9 9 11 12 13 15 16 15 13 13 11 10 10 12 13 12 12 11 8 9 10
1 5 2 5 2 3 1 2 8 4 1 0 0 1 1 1 3 6 8 3 4 14 9 13 12 17 5 3 2 8 8 9 8 6 7 5 7 7 7 9 11 9 7 8 7 8 9 10 9 9 9 10 11 9 7 7 6 10 12 10 12 11 8 9 13 14 15 15 13 12 11 12 14 14 13 13 12 12 13 13 12 12 11 13 10 11
4 1 8 2 3 1 2 4 5 8 8 3 3 3 2 1 3 2 3 4 7 10 10 10 12 8 10 4 4 5 7 4 2 4 6 7 7 6 6 8 10 9 8 10 10 10 11 11 10 9 7 6 5 5 6 9 12 12 8 12 14 15 15 14 14 13 15 13 15 14 15 16 15 15 13 12 12 13 12 11 12 12 11 9 12 12
2 2 9 5 7 8 7 2 7 4 6 7 10 11 12 8 4 7 12 3 3 7 9 10 13 4 10 1 4 1 1 1 1 1 5 6 7 9 12 9 7 9 11 11 12 11 12 11 10 5 3 5 6 7 10 11 9 10 13 16 14 12 13 15 15 15 17 15 15 15 15 14 12 12 11 13 12 13 12 12 12 12 10 14 12 13
2 2 4 7 9 10 9 8 3 8 4 3 4 7 8 8 7 8 15 7 2 4 3 6 9 9 4 20 14 6 7 4 6 6 8 7 8 8 9 8 10 13 15 16 13 11 9 6 5 4 5 7 9 9 8 7 11 14 15 13 12 15 18 17 18 16 13 12 13 16 16 13 11 12 13 14 12 13 13 12 11 11 14 13 12 12
6 1 1 7 5 7 13 11 4 3 3 3 4 4 2 7 9 10 9 3 6 2 6 6 11 5 5 14 20 16 14 14 8 7 12 14 12 12 11 11 15 15 15 13 8 7 7 5 4 4 6 7 8 10 13 12 11 10 10 13 13 16 20 17 15 13 13 14 15 14 11 13 12 13 13 15 14 15 13 12 12 12 13 12 11 13
2 3 4 3 4 6 6 5 8 1 2 4 4 5 6 5 3 4 2 2 9 10 13 13 18 10 11 12 18 21 22 22 21 19 14 13 15 13 10 12 12 12 13 11 9 7 5 4 6 8 7 8 10 10 8 9 10 11 13 12 14 17 18 15 12 11 13 14 15 14 14 14 13 15 16 17 14 16 15 14 13 12 14 12 12 13
10 7 7 9 11 13 11 8 7 8 8 2 2 4 4 6 11 8 10 5 12 7 14 13 13 12 16 15 18 23 27 27 26 21 13 8 11 16 12 12 12 10 10 10 5 3 6 7 8 7 9 9 9 9 9 9 10 12 13 15 15 15 12 13 11 13 13 13 14 15 16 16 15 17 18 18 16 16 16 14 14 14 12 14 14 13
3 4 12 14 15 16 15 13 3 3 2 6 7 10 11 12 14 14 12 13 15 16 17 16 18 21 19 16 19 26 25 25 27 26 16 10 9 11 11 11 10 10 11 9 6 6 6 7 10 11 9 8 8 8 8 8 10 11 13 14 13 14 13 12 11 13 14 14 15 14 15 15 17 18 17 16 16 13 13 13 13 14 15 13 15 15
1 5 11 17 19 16 16 17 18 15 19 16 19 19 18 17 13 15 15 19 15 15 21 12 19 19 20 19 23 26 26 25 26 25 21 13 9 8 9 11 13 12 12 7 6 8 10 11 10 10 11 9 8 8 8 9 11 12 12 15 13 12 11 10 12 14 15 14 15 15 16 16 17 15 14 12 11 11 12 12 12 13 12 12 14 15
5 9 9 13 18 16 19 21 22 21 19 18 19 20 22 22 20 20 22 21 19 17 22 17 17 19 19 19 23 25 25 26 24 23 23 21 15 11 10 9 10 11 9 8 9 9 9 10 11 13 13 12 10 11 12 11 11 9 10 12 12 10 13 13 12 14 14 15 16 17 17 15 13 11 11 12 13 12 13 14 13 12 12 13 13 12
3 10 11 15 19 16 19 18 21 22 21 20 20 21 21 21 22 23 24 23 25 26 25 25 25 29 22 18 19 24 25 21 19 19 20 22 23 21 17 12 7 7 8 10 10 10 9 10 12 13 12 11 10 12 12 11 10 11 12 14 12 11 12 9 14 15 15 16 18 17 15 14 12 13 13 14 15 15 14 14 13 13 13 14 14 13
8 3 11 13 15 18 20 20 20 21 22 23 22 21 22 22 24 26 24 22 22 26 25 30 30 28 17 18 21 22 21 20 21 21 23 25 26 27 22 13 6 6 5 7 9 12 12 13 13 13 13 14 14 13 13 12 12 11 11 12 10 12 12 12 14 13 14 17 17 14 12 12 13 13 15 16 15 13 14 14 13 13 13 13 13 14
4 6 6 10 14 15 12 18 19 17 19 23 25 23 21 23 25 22 20 21 22 27 25 23 20 18 17 22 23 22 23 23 24 25 24 22 21 18 14 13 13 13 13 12 11 11 12 12 12 13 14 15 15 14 13 13 13 12 13 13 11 13 9 11 12 13 15 17 13 12 13 13 13 13 13 12 14 14 14 13 13 14 14 13 14 13
2 4 5 5 14 11 9 13 15 17 18 20 20 23 29 30 25 22 24 23 20 19 21 18 19 18 20 16 20 19 19 18 18 18 18 14 12 12 12 12 11 11 12 12 12 12 12 11 11 12 13 13 14 16 16 15 14 15 15 14 14 5 8 12 14 14 14 13 11 13 12 11 12 12 12 13 13 12 12 14 14 14 14 16 14 12
7 9 11 8 12 9 8 15 14 15 20 19 11 22 23 25 25 27 23 22 24 19 18 18 13 11 15 14 12 12 13 12 11 8 11 9 10 12 11 10 10 10 11 12 12 13 13 12 12 13 13 13 15 15 15 14 13 15 13 9 2 7 11 12 12 13 14 11 10 11 11 11 11 13 13 12 12 12 14 14 16 15 14 12 12 14
12 11 12 7 12 12 7 9 13 19 15 1 3 5 15 23 23 24 23 26 20 14 13 12 12 12 12 9 9 11 13 15 7 6 12 13 14 12 13 13 13 13 12 12 14 14 14 15 15 16 17 17 16 15 14 14 12 12 13 10 8 8 9 10 11 12 12 12 12 11 11 12 13 13 13 13 13 13 14 15 13 14 14 14 15 16
12 13 10 11 10 12 13 12 17 13 1 5 3 2 9 7 8 14 19 5 15 14 13 9 9 9 11 14 13 12 13 16 3 3 10 13 12 12 14 14 15 14 14 12 12 14 14 15 15 15 16 14 14 15 12 12 13 12 13 8 7 6 7 8 8 10 7 9 10 12 13 14 14 13 12 13 13 14 15 15 16 16 13 12 11 10
16 12 9 13 8 16 13 16 23 16 21 20 14 6 11 6 11 9 10 3 12 11 11 9 9 12 13 12 13 14 17 14 1 2 9 16 15 11 11 13 13 13 12 12 11 12 12 12 13 14 14 15 15 15 14 13 12 11 11 9 5 4 4 5 8 9 10 11 12 12 12 12 13 12 13 13 14 15 15 15 14 13 11 12 12 12
11 15 10 14 9 13 18 15 14 12 18 2 4 8 7 10 9 8 4 4 10 13 11 7 12 14 13 11 14 14 14 11 12 12 14 18 15 14 15 13 13 11 11 11 11 11 11 11 12 14 14 15 16 16 15 13 12 11 9 6 4 1 2 3 8 7 7 11 9 9 9 9 10 12 13 13 16 16 14 12 10 12 11 14 13 13
2 7 9 14 10 9 14 14 10 9 1 5 10 12 9 14 15 12 3 5 7 12 11 8 11 11 9 12 12 12 12 11 11 11 12 15 17 14 14 14 14 13 11 10 12 13 14 13 12 12 14 15 17 18 17 16 14 12 10 6 5 3 3 5 5 4 4 4 2 4 5 7 9 11 12 14 14 12 13 13 13 10 9 9 9 9
6 2 2 6 10 8 11 12 13 7 2 8 9 9 11 17 12 3 10 5 15 12 5 8 6 6 6 9 7 5 8 10 11 14 15 14 14 13 12 14 14 15 15 13 10 10 9 9 11 14 15 15 17 17 17 15 14 13 11 8 3 3 4 4 4 4 3 2 3 4 5 6 8 9 10 12 10 10 10 9 9 11 11 9 9 9
2 4 1 8 5 10 12 13 9 5 6 5 10 8 12 10 3 3 9 10 13 11 5 6 5 6 4 6 5 5 5 5 11 13 15 14 14 13 9 8 11 12 14 15 15 14 12 11 9 11 12 12 13 14 14 13 13 14 12 8 6 8 6 3 2 3 3 3 3 5 6 5 7 9 7 7 8 8 8 9 10 10 11 11 9 9
2 3 3 3 6 7 5 6 7 5 1 4 7 8 10 9 9 9 8 4 5 12 6 5 7 5 5 4 6 5 7 7 7 10 11 12 12 14 14 14 14 14 11 10 12 14 15 15 14 14 13 11 11 11 12 11 13 13 12 10 11 11 4 1 2 3 3 4 4 4 4 6 5 6 7 7 9 9 8 6 7 9 10 9 10 12
3 7 6 7 3 4 4 10 9 13 1 14 7 7 3 5 8 9 8 6 7 5 8 4 4 5 2 6 6 6 7 8 8 11 12 12 13 14 16 16 15 15 16 18 17 13 12 14 17 16 17 14 12 11 10 11 13 13 12 12 14 9 5 4 2 3 4 4 5 6 6 5 6 6 5 7 9 10 10 9 10 10 10 10 10 11
1 6 5 6 4 11 10 11 6 2 7 5 6 4 5 2 7 5 5 4 6 6 4 5 2 4 3 6 7 9 8 10 12 9 11 12 13 14 14 14 14 14 14 14 14 16 17 16 16 17 15 15 12 11 11 10 13 13 13 14 12 8 5 3 4 2 3 4 5 5 7 8 8 7 7 8 8 8 9 9 10 10 10 11 11 11
5 8 5 8 3 3 4 7 10 11 7 4 3 3 5 7 5 7 6 6 5 4 1 0 5 4 5 6 8 8 11 9 10 11 13 13 13 13 14 14 14 15 15 15 16 16 14 17 20 20 19 15 13 12 12 10 12 16 17 14 9 8 7 5 3 4 5 5 5 6 6 6 8 9 10 10 12 12 10 10 11 11 9 11 11 11
4 8 5 1 7 8 10 10 9 7 9 12 10 7 7 10 8 6 5 4 3 1 1 1 4 5 6 6 8 9 9 11 12 11 10 11 12 12 11 12 14 13 14 14 15 15 16 17 17 18 20 21 15 13 12 12 11 16 17 14 12 9 6 5 6 7 9 7 7 9 8 9 8 8 10 12 11 13 12 14 13 12 11 11 11 11
4 5 1 5 6 8 8 4 5 7 12 13 10 13 11 6 6 2 2 0 0 2 2 3 4 6 7 6 8 10 12 11 11 11 10 9 11 13 14 14 12 12 14 14 15 15 16 16 16 18 20 22 20 14 14 14 13 13 14 15 13 10 7 7 9 10 9 9 8 7 9 11 10 10 10 11 10 10 11 11 12 12 12 13 13 13
8 3 2 7 8 6 12 12 11 7 10 12 12 11 9 3 1 1 2 1 0 2 2 5 5 7 6 7 7 8 10 12 11 12 11 11 12 12 13 13 14 14 13 12 14 15 15 17 17 19 20 20 19 15 14 15 15 14 14 13 13 11 8 9 10 11 11 11 9 8 9 10 11 12 10 12 13 12 12 12 13 14 16 17 17 16
5 4 7 7 7 7 10 12 15 15 13 13 13 8 4 5 3 3 1 0 2 3 5 5 4 6 6 9 7 7 10 11 10 10 11 12 13 12 12 13 14 14 15 16 14 13 15 16 18 19 19 19 17 14 15 17 14 11 11 11 12 11 9 11 12 12 12 10 8 10 9 9 9 10 10 10 11 11 12 15 16 17 14 13 11 14
1 9 12 6 7 11 12 14 9 8 10 8 8 6 6 5 5 5 1 1 1 3 4 7 8 6 6 8 8 7 8 11 12 10 10 11 13 14 15 14 13 15 16 14 12 13 14 15 17 18 21 19 16 16 15 14 13 14 15 14 14 12 11 12 11 11 12 9 9 9 8 9 9 10 10 9 10 10 8 7 11 8 9 9 12 13
10 12 8 8 10 12 14 14 11 11 11 11 12 4 7 3 4 4 3 2 3 4 3 3 8 10 9 8 6 8 9 11 12 11 12 11 13 12 13 14 14 15 16 16 16 16 16 16 17 19 20 20 16 14 14 15 16 16 16 15 15 15 13 13 11 11 11 9 9 10 10 10 10 10 9 9 9 9 9 6 7 13 12 9 13 14
Wind_Direction
141 156 166 197 225 223 221 196 218 230 236 270 309 235 246 248 268 268 266 262 189 275 236 241 244 251 251 248 257 259 267 266 266 265 258 253 254 256 259 256 256 260 259 259 259 226 213 202 198 200 194 196 190 187 181 180 184 181 178 171 179 173 168 167 167 170 166 169 167 175 188 193 187 187 181 184 183 182 182 176 175 173 172 172 168 169
112 184 212 218 224 216 217 212 228 253 262 245 255 267 266 246 272 249 263 271 211 205 258 237 253 254 252 253 257 265 266 263 260 263 261 256 243 249 254 259 257 254 265 273 270 256 251 216 207 193 186 173 175 198 182 185 188 181 173 178 173 169 174 177 175 174 178 181 183 181 189 185 183 181 184 188 187 184 178 177 176 176 175 173 174 172
196 203 220 227 226 233 253 200 221 222 238 241 235 251 281 260 257 275 261 265 258 165 264 260 263 258 253 252 255 255 253 255 253 248 256 258 253 242 247 254 260 265 263 269 267 239 230 221 208 190 192 194 197 187 187 189 171 174 178 179 172 176 175 179 177 174 183 185 185 184 180 180 177 194 186 174 168 161 174 183 180 178 178 175 176 175
252 245 236 232 216 235 259 222 220 283 254 214 242 256 244 254 274 285 193 259 238 187 263 241 267 266 267 265 260 255 254 252 251 253 256 254 251 247 243 245 254 260 262 262 263 257 218 213 205 196 198 201 188 176 180 172 179 177 181 178 176 178 179 177 181 183 180 171 154 127 129 137 133 163 150 140 139 160 164 187 186 187 181 181 178 178
228 222 223 223 189 198 230 231 224 255 263 196 217 229 257 250 238 235 272 333 280 280 262 288 277 270 247 257 256 250 244 254 260 260 259 259 243 248 257 262 253 255 258 259 264 260 216 208 207 201 201 176 186 186 185 181 180 183 182 180 177 177 181 181 178 175 158 136 122 111 94 95 89 80 133 143 177 183 186 178 191 193 180 179 181 181
259 249 124 158 194 207 216 235 217 215 262 249 197 210 235 243 262 258 279 328 321 303 251 239 313 276 198 216 236 240 265 245 248 249 254 253 251 245 254 254 254 251 251 253 256 256 224 216 211 206 189 189 196 194 194 185 182 174 177 175 176 175 179 179 176 168 160 165 159 153 153 167 178 180 177 191 192 186 190 195 175 165 185 183 180 182
235 210 187 187 186 204 202 214 222 182 240 268 246 206 233 244 240 261 277 358 280 257 318 103 200 291 134 226 222 246 244 244 255 241 247 252 251 241 242 250 256 252 253 249 254 255 222 218 198 204 199 198 197 204 172 172 178 176 175 176 176 176 179 177 173 169 166 167 175 178 182 181 185 190 206 200 186 186 186 160 178 185 182 186 180 182
182 230 197 207 191 179 184 232 233 187 227 262 217 182 212 233 235 225 203 192 258 286 249 148 153 257 291 239 208 214 228 232 245 252 250 247 248 243 240 244 250 257 241 240 241 238 224 204 195 202 203 193 203 170 160 172 172 175 177 174 177 176 176 176 172 174 177 176 180 183 188 189 195 198 196 187 187 174 170 179 184 180 186 185 184 177
165 195 199 206 193 172 203 218 203 159 185 225 201 142 170 193 203 150 164 198 235 11 299 166 97 285 265 258 192 193 227 235 236 242 248 247 245 247 247 244 245 252 258 228 243 234 212 202 209 207 198 200 163 166 176 179 178 175 172 172 173 177 176 175 176 177 184 184 183 186 186 196 207 201 189 176 172 175 178 184 182 183 183 182 184 182
305 172 214 182 159 216 225 217 156 172 206 266 117 84 80 74 72 101 106 105 325 23 276 168 159 213 283 295 161 350 207 227 229 231 241 239 238 241 249 254 254 260 264 236 232 235 213 211 211 200 156 156 187 165 160 156 151 161 163 171 175 181 177 175 179 181 185 186 181 189 196 199 195 187 168 173 183 183 180 188 184 184 180 183 182 182
231 338 146 130 205 219 180 204 173 198 187 101 80 76 9 36 26 26 68 93 30 266 259 164 189 164 276 297 171 142 195 210 216 253 262 264 262 263 261 257 257 253 253 249 233 227 214 214 177 151 172 174 158 165 162 164 167 167 170 174 180 184 178 178 182 181 188 189 189 196 196 198 193 187 176 177 192 185 184 192 188 185 185 180 184 176
250 90 178 249 89 81 101 92 33 46 128 137 178 127 23 328 12 33 344 42 193 268 219 189 176 180 223 284 299 219 258 276 208 209 229 235 245 248 255 258 255 251 250 259 235 227 170 137 150 155 171 174 175 161 173 175 171 175 176 176 181 184 186 182 183 186 191 191 197 200 197 198 196 184 188 192 193 191 192 193 189 185 175 183 178 179
260 223 207 59 209 156 153 125 316 16 33 114 100 82 221 264 28 317 33 306 199 236 248 211 169 9 240 228 220 288 265 245 208 220 226 226 236 245 253 257 256 257 270 245 232 189 184 185 182 187 183 165 181 189 182 179 177 177 181 182 183 193 187 186 185 190 192 194 200 199 199 202 194 195 195 197 197 192 194 190 188 184 191 179 180 188
275 304 177 222 52 218 136 188 194 321 213 129 166 166 127 249 241 251 268 252 302 288 253 162 177 244 273 304 214 248 253 228 204 217 229 229 224 233 244 260 275 293 248 240 219 206 204 198 197 194 185 189 188 186 184 182 182 184 186 188 191 195 186 186 188 194 193 202 202 199 201 199 194 201 197 200 199 193 195 191 193 192 191 191 194 183
302 295 228 136 236 174 182 200 201 191 160 199 110 158 193 174 154 196 215 243 238 247 307 279 134 233 71 248 220 215 255 329 233 226 229 250 284 283 293 300 287 277 265 249 221 213 208 206 194 194 195 192 191 187 182 185 188 182 191 192 198 191 193 191 195 192 199 203 202 201 202 199 198 202 198 203 199 192 193 195 195 197 195 199 199 193
219 241 273 187 319 152 181 220 158 104 96 212 162 61 41 227 148 221 217 228 267 335 324 215 216 208 234 259 294 254 267 263 261 299 319 281 263 274 281 270 264 270 304 245 242 241 232 211 205 203 197 199 193 189 188 189 186 191 200 198 200 200 195 196 194 198 202 203 198 200 201 204 201 200 200 202 200 199 194 193 195 197 198 199 194 195
296 265 299 217 45 181 204 159 200 149 218 224 111 190 215 149 162 251 318 255 96 341 255 197 284 273 305 274 241 254 249 264 286 276 279 277 256 250 253 264 267 273 311 264 241 238 233 206 220 213 203 195 192 193 197 196 194 199 196 196 202 204 196 199 202 205 203 200 196 203 205 200 200 201 201 202 198 195 191 191 197 194 196 188 189 185
241 259 274 150 243 267 62 297 356 325 136 108 188 230 77 112 117 159 213 337 231 243 265 273 255 273 360 283 348 23 49 274 271 259 236 244 277 292 268 265 268 289 274 262 265 267 261 239 227 224 221 209 202 199 198 201 200 201 200 206 208 204 204 208 205 203 200 198 202 203 203 203 203 203 205 199 195 187 182 193 193 188 186 195 183 178
215 262 254 235 203 345 348 26 320 346 17 146 193 241 143 238 248 246 95 228 234 239 256 238 275 270 233 256 284 293 297 296 281 262 282 282 267 254 265 271 277 285 291 274 260 256 252 232 224 216 219 220 219 212 209 206 198 202 209 212 207 208 211 208 206 212 214 207 207 206 205 203 203 205 204 200 190 178 189 193 192 191 190 170 176 174
15 276 268 33 78 328 360 105 226 204 337 115 355 308 66 99 203 158 200 185 188 250 246 257 250 267 231 205 210 229 246 241 256 313 277 270 263 266 268 272 275 279 265 263 261 258 253 247 231 218 213 210 207 204 204 195 193 212 213 206 218 226 221 205 203 202 208 208 209 208 204 205 205 204 200 196 187 189 194 194 188 187 180 186 169 180
283 248 264 281 328 308 253 189 230 164 194 221 229 270 301 227 230 118 311 166 211 243 232 259 251 254 272 189 216 233 223 231 219 295 315 314 308 293 282 277 286 281 263 255 245 245 242 244 244 229 216 219 219 207 193 193 203 213 203 214 213 211 210 212 214 205 212 204 209 205 204 204 201 202 198 194 193 194 194 188 187 187 185 161 184 174
335 286 261 300 286 236 241 179 197 215 204 199 192 217 212 213 258 253 252 174 203 222 242 244 253 251 280 186 181 201 227 211 258 245 278 283 291 295 285 284 270 278 276 266 252 231 236 237 239 245 214 202 199 205 205 208 202 204 208 214 212 212 213 213 213 209 211 205 207 205 209 206 201 198 193 197 194 197 194 190 186 182 169 184 182 176
127 240 296 258 245 258 274 279 211 241 243 261 204 242 217 232 231 231 251 224 274 236 282 251 278 245 273 286 266 269 273 254 294 286 281 273 266 273 278 274 279 269 264 263 253 250 244 244 244 236 222 213 214 221 220 208 205 211 214 212 209 207 217 211 214 211 208 206 207 209 208 201 195 191 195 195 197 199 195 191 184 177 182 183 180 181
137 199 220 262 277 281 278 283 278 166 201 284 256 225 182 218 211 231 243 237 246 318 303 280 258 271 254 268 283 280 271 285 281 268 273 278 276 271 270 268 266 269 267 262 273 281 264 255 258 234 227 223 220 222 221 214 214 218 217 215 212 214 220 214 215 206 202 205 209 210 203 202 197 191 194 198 199 199 194 186 185 180 183 182 176 178
229 215 155 288 301 283 292 332 280 276 121 198 202 230 214 251 289 272 349 26 260 229 240 250 257 257 245 262 276 285 284 278 275 270 264 272 280 276 263 262 260 263 273 276 258 256 275 273 247 239 236 226 227 228 226 223 220 217 220 214 215 220 221 215 211 204 207 206 208 203 202 204 196 197 198 201 199 198 190 188 182 179 181 176 179 180
224 190 157 215 236 257 265 239 231 241 233 216 276 270 254 217 242 266 261 240 251 229 232 241 259 251 258 259 269 273 277 278 273 270 269 250 257 269 260 255 256 254 258 259 274 307 263 240 236 241 231 228 230 228 228 227 225 224 224 222 217 222 217 213 203 207 205 207 207 205 204 203 198 202 202 202 200 197 192 188 182 179 180 177 177 175
262 197 208 225 229 238 239 252 205 139 143 221 228 221 231 233 236 237 246 251 250 254 243 236 240 255 254 260 262 265 268 274 278 279 275 280 259 243 248 255 254 252 258 272 298 283 292 284 263 253 255 248 245 236 235 236 235 230 228 231 223 222 217 208 199 204 205 206 207 209 207 203 204 204 203 201 199 194 189 187 183 180 182 178 175 174
145 218 219 231 234 237 246 248 252 234 246 239 244 240 236 235 233 237 237 250 253 266 258 236 242 248 251 253 259 263 265 268 271 278 287 279 256 245 243 245 255 263 265 269 278 272 259 253 253 249 243 242 246 256 259 248 237 232 227 232 228 220 213 204 198 204 205 204 206 209 208 207 208 204 202 199 195 191 189 183 182 185 179 173 176 178
182 242 223 235 244 240 240 246 249 256 249 248 241 245 245 243 246 244 246 245 249 246 257 253 247 248 246 240 249 256 259 259 265 278 282 283 283 266 260 262 260 267 283 293 272 262 262 272 280 288 289 280 271 263 257 252 245 238 237 235 232 213 215 205 200 206 204 204 207 209 208 206 203 198 193 190 189 186 184 185 183 178 175 178 179 179
181 239 246 240 252 243 246 241 245 248 253 251 245 244 245 249 250 249 249 245 243 249 251 255 253 252 248 246 239 249 255 263 271 275 279 284 281 276 270 267 267 267 265 265 264 266 272 276 278 278 282 287 276 267 261 256 250 237 232 236 227 216 219 186 206 205 205 206 211 210 203 198 193 191 189 187 188 188 184 180 178 178 178 181 180 177
216 228 195 243 251 248 249 246 242 238 242 247 248 246 242 243 247 248 254 255 256 259 256 253 251 255 254 257 255 257 264 267 268 270 271 272 276 280 287 302 320 299 297 300 314 320 320 314 307 301 294 283 274 265 264 257 253 250 243 242 228 216 212 193 209 206 206 213 214 207 196 191 194 189 191 191 186 183 179 179 177 178 179 178 178 177
208 272 251 257 260 252 234 245 247 246 244 242 246 245 247 245 247 243 248 244 239 247 251 257 258 258 255 249 254 255 256 256 260 263 265 268 279 304 337 12 22 17 9 5 355 351 347 338 325 311 297 288 281 273 266 262 256 253 249 243 227 223 197 197 207 206 211 215 207 198 194 195 192 191 193 183 186 181 181 173 173 178 179 177 177 178
226 307 287 288 268 262 238 236 244 247 255 251 242 239 236 238 239 244 240 249 250 256 257 256 256 249 257 266 269 267 269 271 272 276 292 329 7 38 33 20 19 11 3 352 349 344 342 340 334 329 321 311 302 293 281 271 270 263 254 246 237 200 176 199 204 209 215 213 201 201 194 190 188 190 185 188 182 177 173 175 177 178 178 183 180 167
241 251 263 263 264 281 272 267 263 254 233 242 223 226 230 238 239 243 247 249 253 244 246 249 285 356 16 19 16 354 339 326 338 22 67 50 8 7 12 13 6 359 349 343 339 335 331 333 331 329 325 319 315 307 295 290 282 279 278 273 240 181 207 198 206 206 211 205 202 197 193 189 186 188 188 181 176 173 178 179 184 183 180 173 171 179
256 264 262 262 273 284 302 305 288 249 269 343 181 227 226 238 245 251 253 252 270 313 350 26 30 28 9 3 2 345 326 311 332 63 48 38 21 4 353 349 351 347 340 334 334 332 331 329 329 331 333 332 325 318 318 310 297 286 280 262 234 217 202 207 205 208 207 200 197 186 188 188 188 189 183 179 176 177 182 184 182 179 180 179 180 179
247 252 263 256 262 276 269 267 266 249 351 152 332 332 318 306 303 295 274 320 28 11 354 7 24 38 11 3 353 346 337 311 236 104 62 30 24 0 348 340 335 337 334 330 326 324 326 327 325 325 323 319 322 324 325 316 311 303 283 272 233 224 209 208 212 217 204 200 195 194 193 187 188 185 179 176 178 181 184 184 184 182 178 176 179 179
230 247 239 263 227 262 260 257 260 282 280 274 274 16 6 8 326 328 303 91 24 18 333 336 7 25 15 1 353 348 344 336 178 286 31 11 358 347 340 330 322 322 323 321 321 317 316 315 318 321 321 323 327 330 331 323 312 299 292 288 271 235 224 199 214 214 204 206 201 199 193 189 185 183 179 178 179 185 186 184 185 181 172 173 178 176
218 222 230 248 233 230 258 256 259 254 256 334 350 298 339 321 292 264 240 197 33 16 351 331 16 9 2 351 350 352 338 6 354 334 346 343 343 338 329 327 324 320 323 319 317 315 317 318 321 324 329 328 331 335 334 328 324 322 323 325 343 317 265 235 234 225 214 217 208 199 193 188 183 184 181 180 187 188 187 182 178 178 173 177 174 179
340 243 237 244 280 282 277 281 278 291 359 58 345 325 331 326 318 302 188 210 51 12 345 31 6 358 342 353 330 355 359 351 322 318 331 332 326 332 327 321 326 324 320 322 321 321 321 323 324 322 327 333 337 337 337 334 333 336 338 350 354 355 296 265 290 305 280 283 244 204 190 187 186 187 184 188 191 184 182 181 180 169 165 173 168 168
4 301 276 259 270 252 269 263 271 284 278 352 338 334 338 323 319 46 278 167 358 7 325 24 356 322 330 328 318 356 4 324 317 317 319 317 313 316 321 320 324 330 328 323 323 317 310 312 328 332 336 337 333 333 336 337 335 333 338 343 19 335 281 292 316 309 300 239 188 187 186 191 192 192 189 189 180 180 181 169 161 166 168 166 164 160
353 326 259 268 262 280 274 274 283 267 120 24 339 321 337 304 300 281 271 348 326 334 347 353 322 309 297 310 320 332 295 268 279 289 301 307 312 315 317 319 317 320 322 324 323 325 322 323 325 322 321 323 326 329 330 336 336 327 327 336 340 299 263 236 216 207 214 201 188 187 190 186 191 188 186 179 177 168 165 169 168 161 166 163 160 156
259 200 259 237 256 256 265 280 260 298 178 57 330 21 329 26 5 286 295 324 348 299 312 301 304 308 298 287 311 296 289 284 281 286 300 309 314 310 316 320 320 316 312 315 315 322 324 322 321 320 320 320 322 323 325 330 327 318 318 324 310 291 290 261 193 165 175 186 189 198 193 191 185 178 167 157 154 162 166 160 156 163 161 162 162 166
237 295 250 261 290 300 278 281 272 271 173 16 334 8 55 44 268 270 298 266 251 259 271 285 269 284 312 305 306 303 298 297 300 306 306 311 311 312 316 321 322 323 325 328 329 325 323 320 321 322 322 323 323 321 317 321 316 313 313 311 295 302 304 271 223 191 187 182 177 178 185 187 179 167 155 158 161 163 165 158 158 161 163 164 164 168
316 289 276 264 216 263 255 246 235 24 321 308 26 306 317 213 236 269 268 266 238 218 242 255 225 247 285 297 307 307 302 305 307 307 306 304 308 311 312 314 318 322 322 318 320 325 327 322 318 318 317 318 319 316 311 311 306 303 304 298 297 302 295 279 266 237 215 209 198 186 180 174 169 158 155 157 158 164 161 165 165 165 172 169 168 171
196 198 258 280 328 301 229 280 294 308 316 303 273 238 269 283 265 231 224 230 248 248 202 151 296 308 311 314 303 303 305 304 299 306 308 307 309 312 314 319 320 323 323 324 325 328 327 323 320 317 314 313 315 314 310 302 297 296 294 293 294 284 273 261 256 245 238 221 205 198 196 178 175 168 164 166 164 167 170 169 169 172 178 174 179 179
276 281 245 237 244 247 253 252 281 307 311 305 298 288 303 297 276 262 226 232 257 198 2 270 286 294 300 297 302 297 291 299 304 302 302 307 308 309 313 315 317 318 321 322 322 323 324 320 315 313 312 312 315 316 311 301 289 288 288 290 289 274 256 235 230 235 234 226 207 201 185 181 186 182 178 174 179 179 176 173 176 179 177 182 188 187
224 212 223 233 271 277 275 256 262 282 285 284 288 299 300 265 258 203 152 217 50 344 328 291 281 289 288 293 288 291 300 305 304 305 307 309 310 312 314 313 311 314 317 317 316 322 320 319 315 313 311 308 309 313 309 303 293 280 283 287 285 279 252 238 233 238 237 227 218 202 189 189 187 184 186 186 185 185 179 179 179 179 181 186 186 189
285 202 205 253 247 222 261 271 282 269 261 275 283 284 282 257 199 155 152 127 123 251 260 282 294 291 290 294 294 306 303 303 306 308 312 312 309 308 306 307 309 310 308 309 315 318 314 313 312 308 306 302 302 309 307 302 297 290 284 279 278 273 255 243 237 236 235 224 211 205 201 205 194 188 190 192 187 184 186 188 186 187 190 187 189 186
227 358 265 241 265 262 275 281 273 275 278 270 268 258 217 193 233 240 194 167 287 326 305 297 287 287 307 290 308 303 294 291 295 305 307 306 303 301 301 303 307 307 307 310 311 315 310 308 306 301 298 296 300 305 303 295 295 307 307 298 291 282 260 252 244 241 242 231 207 211 202 204 199 201 199 199 202 205 198 189 189 195 199 203 194 193
239 247 253 271 275 264 257 262 267 290 287 274 259 228 209 205 183 211 254 283 258 267 284 290 295 298 296 298 300 299 290 293 297 302 300 292 292 296 300 303 304 306 303 302 307 305 302 300 300 301 299 292 294 297 293 295 303 305 303 303 303 294 270 260 255 247 244 229 217 214 198 202 203 202 203 199 201 202 210 218 213 210 201 191 193 204
207 232 237 232 231 252 253 253 249 243 260 259 273 207 214 182 166 197 192 210 244 241 249 291 297 302 295 290 292 293 292 290 291 298 293 291 289 293 296 302 302 300 300 305 309 309 308 305 301 297 291 290 293 293 298 302 299 295 294 296 297 294 277 264 259 252 247 234 224 216 204 205 203 198 200 199 196 196 196 189 201 207 201 188 187 189